Date String (YYYY-MM-DD hh:mm:ss) UTC,Instrument flags,Ambient pressure (hPa),Sample flow (lpm),Bypass flow (lpm),Sample temperature (°C),Ambient temperature (°C),ASC tube jacket temperature (°C),LED temperature (°C),Box temperature (°C),Sample RH (%),Span deviation,Mass concentration (μg/m³),Mass concentration (μg/m³),Mass concentration (μg/m³)
DateTimeUTC,F1_M11,P_M11,Q1_M11,Q2_M11,T1_M11,T2_M11,T3_M11,T4_M11,T5_M11,U1_M11,ZSPAN_M11,X0_M11,X2_M11,X1_M11
2022-02-07 12:00:00,,0833.1,4.99,0.00,22.4,21.8,00.0,31.4,24.0,07.2,0000.0,0001.21,0000.53,0000.42
2022-02-07 12:01:00,,0833.1,5.02,0.00,22.3,21.7,00.0,31.4,24.0,07.1,0000.0,0001.21,0000.53,0000.42
2022-02-07 12:02:00,,0833.1,4.99,0.00,22.3,21.6,00.0,31.4,24.0,07.0,0000.0,0001.22,0000.53,0000.42
2022-02-07 12:03:00,,0833.1,5.02,0.00,22.3,21.6,00.0,31.4,24.0,07.1,0000.0,0001.18,0000.51,0000.42
2022-02-07 12:04:00,,0833.1,4.98,0.00,22.3,21.5,00.0,31.4,23.9,07.1,0000.0,0001.21,0000.52,0000.42
2022-02-07 12:05:00,,0833.2,5.01,0.00,22.2,21.5,00.0,31.3,23.9,07.1,0000.0,0001.17,0000.51,0000.42
2022-02-07 12:06:00,,0833.2,4.99,0.00,22.2,21.5,00.0,31.3,23.9,07.1,0000.0,0001.19,0000.52,0000.42
2022-02-07 12:07:00,,0833.1,5.02,0.00,22.2,21.4,00.0,31.3,23.8,07.1,0000.0,0001.21,0000.52,0000.42
2022-02-07 12:08:00,,0833.1,5.00,0.00,22.2,21.5,00.0,31.3,23.8,07.2,0000.0,0001.23,0000.53,0000.43
2022-02-07 12:09:00,,0833.1,5.00,0.00,22.2,22.0,00.0,31.3,24.0,07.1,0000.0,0001.07,0000.55,0000.44
2022-02-07 12:10:00,,0833.1,5.01,0.00,22.4,22.8,00.0,31.4,24.3,07.1,0000.0,0000.82,0000.53,0000.43
2022-02-07 12:11:00,,0833.2,4.99,0.00,22.5,23.2,00.0,31.4,24.5,07.1,0000.0,0000.79,0000.52,0000.43
2022-02-07 12:12:00,,0833.1,5.01,0.00,22.6,22.9,00.0,31.4,24.5,07.1,0000.0,0000.77,0000.51,0000.43
2022-02-07 12:13:00,,0833.1,4.99,0.00,22.6,22.7,00.0,31.4,24.4,07.1,0000.0,0000.77,0000.51,0000.42
2022-02-07 12:14:00,,0833.1,5.00,0.00,22.5,22.5,00.0,31.4,24.3,07.1,0000.0,0000.74,0000.50,0000.42
2022-02-07 12:15:00,,0833.1,5.01,0.00,22.5,22.3,00.0,31.4,24.2,07.1,0000.0,0000.73,0000.51,0000.42
2022-02-07 12:16:00,,0833.2,4.99,0.00,22.5,22.1,00.0,31.4,24.2,07.1,0000.0,0000.78,0000.53,0000.43
2022-02-07 12:17:00,,0833.1,5.01,0.00,22.4,21.9,00.0,31.4,24.1,07.2,0000.0,0000.74,0000.53,0000.43
2022-02-07 12:18:00,,0833.2,5.00,0.00,22.4,21.8,00.0,31.4,24.1,07.2,0000.0,0000.76,0000.55,0000.43
2022-02-07 12:19:00,,0833.1,4.98,0.00,22.4,21.7,00.0,31.4,24.0,07.2,0000.0,0000.74,0000.55,0000.42
2022-02-07 12:20:00,,0833.1,5.01,0.00,22.3,21.7,00.0,31.4,24.0,07.2,0000.0,0000.71,0000.52,0000.41
2022-02-07 12:21:00,,0833.1,5.00,0.00,22.3,21.6,00.0,31.4,24.0,07.3,0000.0,0000.74,0000.53,0000.40
2022-02-07 12:22:00,,0833.2,5.00,0.00,22.3,21.6,00.0,31.4,23.9,07.3,0000.0,0000.77,0000.53,0000.40
2022-02-07 12:23:00,,0833.2,5.00,0.00,22.3,21.5,00.0,31.4,23.9,07.2,0000.0,0000.80,0000.55,0000.40
2022-02-07 12:24:00,,0833.2,4.98,0.00,22.2,21.5,00.0,31.3,23.9,07.2,0000.0,0000.79,0000.55,0000.40
2022-02-07 12:25:00,,0833.2,5.02,0.00,22.2,21.5,00.0,31.3,23.8,07.3,0000.0,0000.80,0000.55,0000.40
2022-02-07 12:26:00,,0833.2,5.00,0.00,22.2,21.4,00.0,31.3,23.8,07.3,0000.0,0000.78,0000.54,0000.40
2022-02-07 12:27:00,,0833.2,5.01,0.00,22.2,21.6,00.0,31.3,23.9,07.4,0000.0,0000.75,0000.52,0000.40
2022-02-07 12:28:00,,0833.2,4.99,0.00,22.3,22.3,00.0,31.3,24.1,07.3,0000.0,0000.73,0000.51,0000.40
2022-02-07 12:29:00,,0833.3,4.99,0.00,22.4,23.0,00.0,31.3,24.3,07.2,0000.0,0000.68,0000.47,0000.40
2022-02-07 12:30:00,,0833.2,5.01,0.00,22.5,23.1,00.0,31.4,24.4,07.2,0000.0,0000.69,0000.48,0000.41
2022-02-07 12:31:00,,0833.2,4.99,0.00,22.5,22.8,00.0,31.4,24.4,07.3,0000.0,0000.69,0000.48,0000.41
2022-02-07 12:32:00,,0833.1,5.01,0.00,22.5,22.6,00.0,31.4,24.3,07.1,0000.0,0000.66,0000.47,0000.41
2022-02-07 12:33:00,,0833.1,5.00,0.00,22.5,22.4,00.0,31.4,24.3,07.1,0000.0,0000.63,0000.47,0000.41
2022-02-07 12:34:00,,0833.1,5.00,0.00,22.5,22.2,00.0,31.4,24.2,07.1,0000.0,0000.63,0000.46,0000.42
2022-02-07 12:35:00,,0833.1,5.00,0.00,22.4,22.1,00.0,31.4,24.1,07.2,0000.0,0000.67,0000.47,0000.42
2022-02-07 12:36:00,,0833.2,5.01,0.00,22.4,21.9,00.0,31.4,24.1,07.2,0000.0,0000.73,0000.50,0000.43
2022-02-07 12:37:00,,0833.1,5.01,0.00,22.4,21.8,00.0,31.4,24.0,07.2,0000.0,0000.73,0000.50,0000.43
2022-02-07 12:38:00,,0833.1,4.99,0.00,22.3,21.7,00.0,31.4,24.0,07.4,0000.0,0000.71,0000.49,0000.43
2022-02-07 12:39:00,,0833.1,5.00,0.00,22.3,21.6,00.0,31.4,23.9,07.3,0000.0,0000.72,0000.50,0000.43
2022-02-07 12:40:00,,0833.1,5.00,0.00,22.3,21.5,00.0,31.4,23.9,07.1,0000.0,0000.76,0000.52,0000.43
2022-02-07 12:41:00,,0833.2,5.00,0.00,22.2,21.5,00.0,31.3,23.8,07.0,0000.0,0000.76,0000.51,0000.42
2022-02-07 12:42:00,,0833.1,5.00,0.00,22.2,21.4,00.0,31.3,23.8,06.8,0000.0,0000.82,0000.54,0000.43
2022-02-07 12:43:00,,0833.1,4.99,0.00,22.2,21.4,00.0,31.3,23.8,06.9,0000.0,0000.85,0000.55,0000.43
2022-02-07 12:44:00,,0833.1,5.02,0.00,22.1,21.3,00.0,31.3,23.7,07.1,0000.0,0000.86,0000.55,0000.43
2022-02-07 12:45:00,,0833.2,4.99,0.00,22.1,21.4,00.0,31.3,23.7,07.2,0000.0,0000.86,0000.56,0000.43
2022-02-07 12:46:00,,0833.1,5.01,0.00,22.2,22.0,00.0,31.3,23.9,07.2,0000.0,0000.85,0000.56,0000.44
2022-02-07 12:47:00,,0833.2,5.00,0.00,22.3,22.8,00.0,31.3,24.2,07.1,0000.0,0000.84,0000.55,0000.43
2022-02-07 12:48:00,,0833.1,5.00,0.00,22.5,23.0,00.0,31.4,24.4,07.1,0000.0,0000.86,0000.55,0000.43
2022-02-07 12:49:00,,0833.1,4.99,0.00,22.5,22.7,00.0,31.4,24.3,07.2,0000.0,0000.88,0000.56,0000.42
2022-02-07 12:50:00,,0833.1,4.99,0.00,22.5,22.5,00.0,31.4,24.2,07.2,0000.0,0000.87,0000.55,0000.42
2022-02-07 12:51:00,,0833.1,5.01,0.00,22.4,22.3,00.0,31.4,24.1,07.2,0000.0,0000.83,0000.54,0000.42
2022-02-07 12:52:00,,0833.1,4.98,0.00,22.4,22.1,00.0,31.4,24.1,07.3,0000.0,0000.82,0000.53,0000.42
2022-02-07 12:53:00,,0833.1,5.00,0.00,22.4,21.9,00.0,31.4,24.0,07.3,0000.0,0000.77,0000.51,0000.42
2022-02-07 12:54:00,,0833.1,5.00,0.00,22.3,21.8,00.0,31.4,24.0,07.3,0000.0,0000.75,0000.51,0000.41
2022-02-07 12:55:00,,0833.2,4.99,0.00,22.3,21.6,00.0,31.3,23.9,07.3,0000.0,0000.74,0000.51,0000.42
2022-02-07 12:56:00,,0833.2,5.01,0.00,22.3,21.6,00.0,31.3,23.9,07.3,0000.0,0000.72,0000.50,0000.42
2022-02-07 12:57:00,,0833.1,4.99,0.00,22.2,21.5,00.0,31.3,23.8,07.3,0000.0,0000.73,0000.51,0000.42
2022-02-07 12:58:00,,0833.2,5.00,0.00,22.2,21.4,00.0,31.3,23.7,07.3,0000.0,0000.75,0000.51,0000.42
2022-02-07 12:59:00,,0833.2,4.99,0.00,22.2,21.4,00.0,31.3,23.7,07.3,0000.0,0000.78,0000.52,0000.42
